Retour au catalogue

ONEWEB-0568

ActifCommunicationsPO
NORAD 56062·PAYLOAD·🇬🇧 United Kingdom

Lancé Mar 26, 2023 depuis Satish Dhawan Space Centre

Loading…

Prochains Passages (prochaines 24 heures)

TLE

FraisSource: CelesTrak SupGP

Époque: Sep 14, 2026, 13:22 UTC

1 56062C 23043S   26257.55708750 -.00002162  00000+0 -56627-2 0  2577
2 56062  87.9155 211.0253 0001921  85.9373  17.1625 13.16598919    13

Suivez ONEWEB-0568 en temps réel avec AllMySat

Download on the App Store